Regional Weather Roundup
Issued by NWS

Home | Current Version | Previous Version | Text Only | Print | Product List | Glossary On
Versions: 1 2 3 4 5 6 7 8 9 10 11 12 13 14 15 16 17 18 19 20 21 22 23 24 25 26 27 28 29 30 31 32 33 34 35 36 37 38 39 40 41 42 43 44 45 46 47 48 49 50
310
ASUS43 KTOP 191308
RWRKS

WEATHER ROUNDUP FOR KANSAS
NATIONAL WEATHER SERVICE GOODLAND KS
800 AM CDT SAT AUG 19 2017

NOTE:  "FAIR" INDICATES FEW OR NO CLOUDS BELOW 12,000 FEET WITH NO
SIGNIFICANT WEATHER AND/OR OBSTRUCTIONS TO VISIBILITY.

KSZ001>006-013>018-027>032-041>047-191400-
NORTHWEST KANSAS

CITY           SKY/WX    TMP DP  RH WIND       PRES   REMARKS
GOODLAND       CLEAR     65  58  78 S12       30.04S
HAYS           SUNNY     63  61  93 CALM      30.00R
HILL CITY      SUNNY     64  61  90 CALM      30.00S
RUSSELL        SUNNY     65  63  93 NE7       29.99R
$$

KSZ061>065-074>080-084>089-191400-
SOUTHWEST KANSAS

CITY           SKY/WX    TMP DP  RH WIND       PRES   REMARKS
DODGE CITY     SUNNY     67  63  87 E3        30.03R
ELKHART          N/A     65  65 100 SW1         N/A
GARDEN CITY    SUNNY     66  62  87 S5        30.04R
GREAT BEND     SUNNY     69  67  93 N3        29.99S
LIBERAL        SUNNY     68  66  93 CALM      30.06R
PRATT          SUNNY     68  64  87 CALM      30.00S
$$

KSZ066>073-081>083-090>101-191400-
SOUTHEAST KANSAS

CITY           SKY/WX    TMP DP  RH WIND       PRES   REMARKS
CHANUTE        MOSUNNY   74  72  93 MISG      29.98R
COFFEYVILLE    PTSUNNY   74  73  97 S6        29.98S
HUTCHINSON     SUNNY     72  68  87 S5        29.97R
MEDICINE LODGE   N/A     73  67  81 CALM      29.98R
NEWTON         SUNNY     72  69  90 MISG      29.99R
PARSONS        LGT RAIN  75  73  93 S5        29.99R
WICHITA INTL   MOSUNNY   74  70  87 CALM      29.97S
WICHITA JABRA  SUNNY     75  71  87 S6        29.97S
WICHITA MCCONL SUNNY     75  69  81 S6        29.98R
WINFIELD       SUNNY     74  71  91 SE5       29.99S
$$

KSZ007>012-019>026-033>040-048>060-102>105-191400-
NORTHEAST KANSAS

CITY           SKY/WX    TMP DP  RH WIND       PRES   REMARKS
CONCORDIA      SUNNY     65  65 100 SE3       29.98S
EMPORIA        SUNNY     70  65  84 SW5       29.96R
LAWRENCE       SUNNY     67  67 100 CALM      29.96R
MANHATTAN      MOSUNNY   67  67 100 CALM      29.97S
MARYSVILLE     MOSUNNY   61  61 100 CALM      29.98S
OLATHE IND     SUNNY     71  69  93 CALM      29.97R
OLATHE EXE     SUNNY     72  71  97 CALM      29.97R
SALINA         SUNNY     68  65  90 NW7       29.98R
TOPEKA BILLARD SUNNY     69  68  96 CALM      29.96S
TOPEKA FORBES  SUNNY     70  68  93 CALM      29.97R
$$




USA.gov is the U.S. government's official web portal to all federal, state and local government web resources and services.